Benson, United Kingdom

5:56 PM BST on May 24, 2017 (GMT +0100)
Benson Air Base

Weather History for EGUB - December, 2013

Change the Weather History Date:

Friday, December 20, 2013

  Actual Average Record
Temperature  
Mean Temperature 42 °F -  
Max Temperature 51 °F 44 °F 55 °F (2015)
Min Temperature 33 °F 35 °F 1 °F (2010)
Degree Days  
Heating Degree Days 23    
Moisture  
Dew Point 38 °F    
Average Humidity 78    
Maximum Humidity 93    
Minimum Humidity 58    
Precipitation  
Precipitation 0.01 in - - ()
Sea Level Pressure  
Sea Level Pressure 30.05 in    
Wind  
Wind Speed 11 mph ()    
Max Wind Speed 23 mph    
Max Gust Speed 36 mph    
Visibility 11.3 miles    
Events      
Averages and records for this station are not official NWS values.
T = Trace of Precipitation, MM = Missing Value Source: Averaged Metar Reports

Daily Weather History Graph

Daily Weather History Graph

Search for Another Location

Airport or City:

Trip Planner

Search our weather history database for the weather conditions in past years. The results will help you decide how hot, cold, wet, or windy it might be!

Date:

Astronomy

Dec. 20, 2013 Rise Set
Actual Time 8:07 AM GMT 3:56 PM GMT
Civil Twilight 7:27 AM GMT 4:36 PM GMT
Nautical Twilight 6:43 AM GMT 5:20 PM GMT
Astronomical Twilight 6:02 AM GMT 6:01 PM GMT
Moon 7:23 PM GMT (12/20) 9:35 AM GMT (12/20)
Length of Visible Light 9h 09m
Length of Day
7h 48m
Waning Gibbous, 92% of the Moon is Illuminated
Dec 20
Waning Gibbous
Dec 25
Last Quarter
Jan 1
New
Jan 8
First Quarter
Jan 16
Full

Hourly Weather History & Observations

Time (GMT) Temp. Windchill Dew Point Humidity Pressure Visibility Wind Dir Wind Speed Gust Speed Precip Events Conditions
12:00 AM 33 °F - 31 °F 90% 29.87 in 16 mi SSE 8.1 mph - -   Partly Cloudy
12:50 AM 35.6 °F 28.0 °F 33.8 °F 93% 29.86 in 6.2 mi SSE 10.4 mph - N/A   Unknown
1:00 AM 35 °F - 33 °F 90% 29.89 in 16 mi SSE 10.4 mph - -  
1:50 AM 35.6 °F 28.0 °F 33.8 °F 93% 29.89 in 6.2 mi SSE 10.4 mph - N/A   Unknown
2:00 AM 35 °F - 33 °F 89% 29.92 in 16 mi SSE 10.4 mph - -  
2:50 AM 35.6 °F 28.0 °F 32.0 °F 87% 29.92 in - South 10.4 mph - N/A   Clear
3:00 AM 36 °F - 33 °F 83% 29.95 in 16 mi South 10.4 mph - -  
3:50 AM 33.8 °F 27.0 °F 30.2 °F 87% 29.95 in - SSE 8.1 mph - N/A   Clear
4:00 AM 33 °F - 31 °F 87% 29.98 in 16 mi SSE 8.1 mph - -  
4:50 AM 35.6 °F 29.2 °F 32.0 °F 87% 29.98 in - South 8.1 mph - N/A   Clear
5:00 AM 36 °F - 33 °F 82% 30.00 in 16 mi South 8.1 mph - -  
5:50 AM 35.6 °F 28.0 °F 33.8 °F 93% 30.01 in - South 10.4 mph - N/A   Clear
6:00 AM 36 °F - 33 °F 84% 30.03 in 16 mi South 10.4 mph - -  
6:50 AM 37.4 °F 30.3 °F 33.8 °F 87% 30.04 in - South 10.4 mph - N/A   Clear
7:00 AM 36 °F - 33 °F 85% 30.06 in 16 mi South 10.4 mph - -  
7:50 AM 35.6 °F 29.2 °F 32.0 °F 87% 30.06 in - South 8.1 mph - N/A   Clear
8:00 AM 35 °F - 33 °F 87% 30.09 in 16 mi South 8.1 mph - -   Clear
8:50 AM 37.4 °F 31.4 °F 33.8 °F 87% 30.09 in - South 8.1 mph - N/A   Clear
9:00 AM 38 °F - 34 °F 80% 30.12 in 16 mi South 8.1 mph - -   Clear
9:50 AM 39.2 °F 33.6 °F 35.6 °F 87% 30.12 in - South 8.1 mph - N/A   Clear
10:00 AM 40 °F - 36 °F 78% 30.15 in 16 mi South 8.1 mph - -   Clear
10:50 AM 44.6 °F 39.2 °F 37.4 °F 76% 30.15 in - South 10.4 mph - N/A   Clear
11:00 AM 44 °F - 37 °F 70% 30.17 in 16 mi South 10.4 mph - -   Scattered Clouds
11:50 AM 46.4 °F 40.4 °F 37.4 °F 71% 30.15 in - South 13.8 mph - N/A   Clear
12:00 PM 46 °F - 38 °F 65% 30.17 in 16 mi South 13.8 mph - -   Scattered Clouds
12:50 PM 48.2 °F - 39.2 °F 71% 30.15 in 6.2 mi South 15.0 mph - N/A   Mostly Cloudy
1:00 PM 48 °F - 38 °F 60% 30.17 in 16 mi South 15.0 mph - -   Scattered Clouds
1:50 PM 48.2 °F - 37.4 °F 66% 30.12 in 6.2 mi South 15.0 mph - N/A   Mostly Cloudy
2:00 PM 48 °F - 38 °F 58% 30.15 in 16 mi South 15.0 mph - -   Partly Cloudy
2:50 PM 48.2 °F - 39.2 °F 71% 30.12 in 6.2 mi South 15.0 mph - N/A   Mostly Cloudy
3:00 PM 48 °F - 39 °F 61% 30.14 in 16 mi South 15.0 mph - -   Mostly Cloudy
3:50 PM 48.2 °F - 39.2 °F 71% 30.12 in 6.2 mi SSE 15.0 mph - N/A   Mostly Cloudy
4:00 PM 48 °F - 40 °F 64% 30.13 in 14 mi SSE 15.0 mph - -   Partly Cloudy
4:50 PM 48.2 °F - 41.0 °F 76% 30.09 in 6.2 mi South 16.1 mph - N/A   Scattered Clouds
5:00 PM 48 °F - 40 °F 66% 30.12 in 12 mi South 16.1 mph - -   Partly Cloudy
5:50 PM 48.2 °F - 41.0 °F 76% 30.09 in 6.2 mi SSE 19.6 mph - N/A   Mostly Cloudy
6:00 PM 49 °F - 42 °F 68% 30.10 in 12 mi SSE 19.6 mph - -   Scattered Clouds
6:50 PM 50.0 °F - 42.8 °F 76% 30.06 in 6.2 mi South 20.7 mph 32.2 mph N/A   Mostly Cloudy
7:00 PM 49 °F - 43 °F 74% 30.09 in 8 mi South 20.7 mph - -   Partly Cloudy
7:50 PM 50.0 °F - 44.6 °F 82% 30.06 in 6.2 mi South 19.6 mph - N/A   Scattered Clouds
8:00 PM 50 °F - 44 °F 73% 30.07 in 11 mi South 19.6 mph - -   Mostly Cloudy
8:50 PM 50.0 °F - 42.8 °F 76% 30.04 in 6.2 mi South 18.4 mph 31.1 mph N/A   Mostly Cloudy
9:00 PM 51 °F - 43 °F 67% 30.05 in 11 mi South 18.4 mph - -   Partly Cloudy
9:50 PM 51.8 °F - 44.6 °F 76% 30.04 in 6.2 mi South 23.0 mph 35.7 mph N/A   Scattered Clouds
10:00 PM 51 °F - 44 °F 68% 30.04 in 11 mi South 23.0 mph - -   Mostly Cloudy
10:50 PM 50.0 °F - 46.4 °F 87% 30.01 in 4.3 mi South 23.0 mph - N/A   Mostly Cloudy
11:00 PM 49 °F - 46 °F 84% 30.02 in 4 mi South 23.0 mph - -   Scattered Clouds
11:50 PM 50.0 °F - 46.4 °F 87% 30.01 in - South 23.0 mph - N/A   Scattered Clouds